Home   Weather   Janesville   Past weeks
Flag for USA

Past Weather in Janesville, Wisconsin, USA — Yesterday and Last 2 Weeks

Now
25 °F

Overcast.


Feels Like: 12 °F
Forecast: 23 / 11 °F
Wind: 16 mph from Northwest

Location: Janesville / Rock County

Current Time: Dec 9, 2019 at 11:51:48 pm

Latest Report: Dec 9, 2019 at 10:55 pm


Visibility: 10 mi

Pressure: 29.80 "Hg

Humidity: 80%

Dew Point: 19 °F

Location of JanesvilleLocation

Past Weather in Janesville — Graph

°F

Janesville Temperature Yesterday

Maximum temperature yesterday: 45 °F (at 11:45 am)
Minimum temperature yesterday: 34 °F (at 12:15 am)
Average temperature yesterday: 38 °F

High & Low Weather Summary for the Past Weeks

 TemperatureHumidityPressure
High52 °F (Nov 25, 1:45 pm)100% (Nov 24, 10:15 pm)30.51 "Hg (Nov 24, 10:15 pm)
Low23 °F (Dec 6, 11:35 pm)48% (Dec 6, 12:45 pm)29.18 "Hg (Nov 27, 4:35 am)
Average35 °F89%29.87 "Hg
* Reported Nov 24 10:15 pm — Dec 9 10:35 pm, Janesville. Weather by CustomWeather, © 2019

Note: Actual official high and low records may vary slightly from our data, if they occured in-between our weather recording intervals... More about our weather records

Janesville Weather History for the Previous 24 Hours

Scroll right to see more
 ConditionsComfort  
Time TempWeatherWind HumidityBarometerVisibility
10:35 pm
Mon, Dec 9
25 °FOvercast.16 mph80%29.78 "Hg10 mi
10:15 pm27 °FOvercast.14 mph74%29.79 "Hg10 mi
9:55 pm27 °FOvercast.20 mph74%29.77 "Hg10 mi
9:35 pm27 °FOvercast.20 mph74%29.76 "Hg10 mi
8:55 pm27 °FOvercast.20 mph80%29.72 "Hg10 mi
7:45 pm28 °FOvercast.18 mph74%29.69 "Hg10 mi
6:45 pm30 °FOvercast.22 mph80%29.63 "Hg10 mi
5:45 pm30 °FOvercast.23 mph86%29.59 "Hg10 mi
4:45 pm34 °FOvercast.21 mph100%29.54 "Hg10 mi
3:45 pm37 °FDrizzle. Overcast.24 mph100%29.49 "Hg6 mi
3:10 pm41 °FLight rain. Low clouds.21 mph100%29.45 "Hg5 mi
2:45 pm43 °FMostly cloudy.15 mph100%29.44 "Hg10 mi
1:45 pm43 °FFog.14 mph100%29.43 "Hg5 mi
12:45 pm45 °FFog.12 mph100%29.43 "Hg4 mi
11:45 am45 °FFog.10 mph100%29.43 "Hg3 mi
10:45 am45 °FFog.7 mph100%29.45 "Hg4 mi
9:45 am45 °FDrizzle. Low clouds.5 mph100%29.49 "Hg4 mi
8:45 am45 °FFog.3 mph100%29.50 "Hg2 mi
7:45 am43 °FFog.3 mph100%29.51 "Hg2 mi
6:45 am43 °FFog.3 mph100%29.52 "Hg1 mi
5:45 am43 °FFog.No wind100%29.54 "Hg1 mi
4:55 am41 °FLight rain. Dense fog.No wind100%29.56 "Hg1 mi
4:35 am41 °FDrizzle. Dense fog.No wind100%29.57 "Hg1 mi
4:15 am41 °FFog.No wind100%29.57 "Hg1 mi
3:55 am41 °FFog.No wind100%29.58 "Hg1 mi
3:35 am41 °FFog.No wind100%29.59 "Hg1 mi
3:15 am43 °FFog.3 mph100%29.60 "Hg1 mi
2:55 am41 °FFog.3 mph100%29.61 "Hg1 mi
2:35 am43 °FDrizzle. Low clouds.No wind100%29.63 "Hg1 mi
2:15 am41 °FDrizzle. Low clouds.5 mph100%29.64 "Hg2 mi
1:55 am41 °FFog.No wind100%29.65 "Hg3 mi
1:35 am41 °FFog.5 mph100%29.65 "Hg4 mi
1:15 am41 °FFog.5 mph100%29.66 "Hg4 mi
12:55 am41 °FFog.5 mph100%29.67 "Hg4 mi
12:35 am41 °FFog.5 mph100%29.68 "Hg4 mi
12:15 am41 °FFog.5 mph100%29.69 "Hg4 mi
11:55 pm
Sun, Dec 8
41 °FFog.3 mph100%29.70 "Hg4 mi
11:35 pm41 °FFog.3 mph100%29.71 "Hg4 mi
11:15 pm41 °FFog.5 mph100%29.71 "Hg4 mi
Weather by CustomWeather, © 2019

See weather overview

Advertising